Overview Statistics Trail Chart Weather Telemetry Raw packets
 

This is the latest recevied weather packets stored in our database for station/object LA4M-10. If no packets are shown the sender has not sent any weather packets the latest 10 day(s).

<< 25 26 27 28 29 30 31 >>
Time Temp. Humidity Pressure Rain* Wind** Luminosity Snow
1787907138 17.78° C 86% 950.4 hPa - - - -
1787906238 16.67° C 94% 950.6 hPa - - - -
1787905338 15.56° C 100% 950.9 hPa - - - -
1787904438 15° C 100% 950.9 hPa - - - -
1787903538 15° C 100% 951.2 hPa - - - -
1787902638 14.44° C 100% 951.3 hPa - - - -
1787901738 14.44° C 100% 951.3 hPa - - - -
1787900837 14.44° C 100% 951.3 hPa - - - -
1787899937 14.44° C 100% 951.3 hPa - - - -
1787899037 13.89° C 100% 951.2 hPa - - - -
1787898137 13.89° C 100% 951.6 hPa - - - -
1787897237 13.89° C 100% 951.6 hPa - - - -
1787896337 14.44° C 100% 951.8 hPa - - - -
1787895437 15° C 100% 951.6 hPa - - - -
1787894537 15° C 100% 951.7 hPa - - - -
1787893637 14.44° C 100% 951.8 hPa - - - -
1787892736 14.44° C 100% 951.9 hPa - - - -
1787891836 14.44° C 100% 951.9 hPa - - - -
1787890936 14.44° C 100% 952 hPa - - - -
1787890036 14.44° C 100% 952.1 hPa - - - -
1787889136 14.44° C 100% 952.2 hPa - - - -
1787888236 15° C 100% 952.3 hPa - - - -
1787887336 14.44° C 100% 952.5 hPa - - - -
1787886438 14.44° C 100% 952.5 hPa - - - -
1787885536 14.44° C 100% 952.6 hPa - - - -

* Rain since midnight (hover to see other rain measurements)
** Current wind speed in m/s (hover to see current wind gust speed)